sat.trackr.live / text

‹ back to catalog

SDA_1665

NORAD 65975 · 2025-230B

PAYLOAD ACTIVE UNKNOWN

§ Identity

Operator
Country
US
Launch date
2025-10-15
Launch site
AFWTR
Launch vehicle
Mass (kg)
RCS (m²)

External: N2YO · Heavens-Above · Gunter

§ Orbital elements

Epoch: 2026-09-20T13:42:56.058624Z

Period
104.19 min
Inclination
81.2994°
Eccentricity
0.0000955
Mean motion
13.82052608 rev/d
Perigee alt
955.9 km
Apogee alt
957.3 km
Semi-major
7,334.8 km
B*
7.6678e-5
RAAN
123.9246°
Arg perigee
65.5854°
Mean anomaly
294.5401°
Rev number
4,697

§ Raw data

SDA_16651 65975U 25230B   26263.57148216  .00000094  00000+0  76678-4 0  99972 65975  81.2994 123.9246 0000955  65.5854 294.5401 13.82052608 46972

JSON: /api/v1/satellites/65975 · /tle

For live sub-satellite position, see the globe view (requires WebGL).

§ Visibility from observer

Set your observer location to see the next 7 days of passes ≥ 10°. The values pass through the URL so the page stays shareable.

No JS? Fill the form by hand. The geolocation button needs JavaScript.